Dewpoint
51 51 51 51 52 52 51 51 51 51 50 50 50 50 50 50 50 50 49 50 50 50 50 50 51 51 51 52 52 53 54 49 45 39 34 28 46 55 55 55 56 59 58 35 28 25 21 18 17 17 16 13 13 12 18 17 14 13 13 10 10 7 5 2 0 1 8 9 9 10 10 9 13 34 40 39 30 29 43 45 54 53 53 56 58 60 63 66
52 52 51 51 50 51 50 50 50 50 50 50 50 49 49 49 49 49 50 50 50 50 50 51 51 51 52 52 52 53 52 47 43 39 35 42 55 56 58 60 58 59 51 28 26 22 16 14 14 13 14 11 15 10 17 14 15 9 9 12 6 5 4 7 6 8 8 8 11 10 10 10 18 30 40 34 28 30 43 45 50 54 54 57 60 61 64 66
51 51 51 50 51 51 52 52 52 52 52 52 52 51 50 50 49 50 50 50 50 50 51 51 51 52 51 52 52 54 50 45 41 38 35 56 55 56 60 61 57 58 33 27 23 19 12 11 12 11 11 9 8 7 12 12 12 7 12 6 2 3 6 11 9 8 9 10 10 10 9 8 27 34 42 36 34 40 37 44 47 51 53 56 59 62 64 65
50 51 52 52 52 53 53 53 52 52 52 52 52 51 51 51 51 51 50 50 50 50 51 51 51 52 52 52 53 52 48 42 31 28 38 62 58 58 60 59 58 53 35 28 21 14 13 14 12 11 10 8 10 10 6 9 9 9 6 3 2 6 5 4 6 7 9 9 9 9 10 9 33 34 38 38 36 35 32 40 45 47 53 57 59 61 64 64
51 51 52 52 52 52 52 52 53 53 52 53 52 52 53 52 52 52 51 50 50 51 51 51 51 51 52 52 54 51 48 36 25 31 53 62 59 58 60 59 59 38 27 23 18 15 12 12 12 10 9 5 9 6 5 9 7 10 5 2 4 6 4 4 5 7 8 9 9 9 8 8 21 32 37 39 36 31 33 44 48 49 54 57 60 61 63 63
51 51 51 51 52 52 52 52 52 52 52 52 52 52 52 53 52 52 52 50 51 51 51 51 51 52 52 53 51 50 44 16 28 35 65 62 60 60 61 61 58 36 24 21 18 13 11 10 10 7 5 6 6 4 6 7 9 4 3 3 6 6 6 7 7 6 8 8 8 8 9 10 12 27 38 39 37 39 42 47 47 53 55 58 61 62 63 62
50 51 52 52 52 52 52 52 52 52 52 52 53 53 53 53 52 52 51 51 50 51 51 51 51 51 52 53 51 48 37 24 28 50 61 60 59 61 60 58 55 29 24 21 16 10 10 8 8 4 4 2 7 3 7 5 7 5 2 7 6 4 6 6 6 7 8 9 9 9 10 9 9 22 37 39 38 38 42 44 53 58 59 59 61 62 63 61
50 51 51 51 51 51 51 51 51 51 52 52 52 53 53 52 52 52 51 51 50 50 51 51 51 52 53 49 46 38 28 24 32 53 61 59 53 54 53 35 33 28 24 20 14 9 9 7 7 5 5 -2 5 1 7 3 5 3 1 1 3 7 8 8 8 9 9 10 10 10 9 8 9 24 37 39 38 40 43 47 55 57 58 59 62 62 62 62
51 51 51 51 51 51 51 52 52 52 51 52 52 53 52 52 52 52 51 51 50 50 51 51 51 52 52 49 42 29 23 31 39 47 50 46 42 45 38 31 28 27 24 21 16 10 13 13 14 11 8 8 9 9 11 7 8 4 4 7 7 8 9 9 10 9 9 9 10 9 9 11 12 28 30 37 39 43 48 51 54 56 58 59 61 62 62 63
50 50 51 51 51 51 51 51 51 51 51 52 52 52 52 52 52 52 51 51 50 51 51 51 51 52 51 47 41 29 27 35 46 49 45 44 41 38 34 29 28 26 24 21 15 14 16 16 20 18 15 12 13 12 13 8 10 9 8 9 9 9 10 10 9 9 10 10 11 8 13 18 22 25 27 37 43 45 47 52 54 55 58 58 58 61 62 61
50 50 51 51 51 51 51 51 51 51 51 51 52 52 52 52 52 51 51 51 50 50 51 50 51 51 47 44 32 21 31 30 39 43 46 39 34 32 28 30 28 26 24 19 16 16 20 20 21 19 18 13 12 12 13 8 12 12 12 11 10 9 9 8 9 10 9 8 11 9 12 16 20 21 22 33 43 45 45 51 53 54 57 58 58 58 58 60
50 50 51 51 51 51 51 51 51 51 51 51 51 52 52 52 52 51 51 51 51 50 51 50 51 50 46 39 27 26 33 30 35 39 41 31 26 27 28 29 29 28 24 16 16 16 20 22 21 18 15 16 13 12 12 14 13 12 12 9 7 6 7 9 8 9 12 7 10 12 9 11 16 14 25 32 41 44 44 45 50 52 56 57 58 59 60 60
50 50 51 51 51 51 51 51 51 51 52 52 51 51 51 51 52 52 51 51 49 49 50 51 52 48 47 43 25 29 30 35 35 33 33 28 24 25 27 26 24 24 19 11 13 14 16 22 20 18 19 18 12 11 14 15 13 13 11 8 5 3 5 9 9 8 7 7 8 9 9 10 9 10 29 36 39 42 43 44 47 51 54 56 58 57 58 59
50 50 50 50 50 51 51 51 51 51 51 51 51 51 51 52 52 52 51 51 50 50 51 53 51 49 48 24 27 29 33 39 33 28 26 24 19 21 22 22 21 18 15 17 18 20 18 19 20 20 19 17 13 16 14 12 12 8 8 6 8 3 7 11 10 7 6 7 8 7 13 8 7 12 29 37 40 41 41 42 46 49 53 55 56 55 54 57
50 50 50 50 50 50 51 51 51 51 51 51 51 51 51 51 51 52 51 50 51 50 50 53 50 50 47 24 33 37 47 39 31 28 24 19 17 18 19 20 18 18 19 18 22 26 22 21 21 19 17 17 16 14 10 7 9 9 5 4 2 4 10 13 15 14 6 9 8 7 15 6 7 11 29 36 36 39 37 42 44 49 51 54 54 53 52 54
50 50 50 50 50 50 51 51 51 51 51 51 51 51 51 51 51 51 51 50 49 49 50 49 48 44 37 22 39 51 42 35 32 33 29 23 17 15 18 19 21 22 20 22 22 23 22 21 18 16 14 15 11 9 9 5 7 8 12 18 8 4 7 9 15 16 15 11 10 7 8 4 8 11 29 37 35 36 38 41 46 48 50 53 52 52 51 53
50 50 50 50 50 50 50 51 51 51 51 51 51 51 52 52 52 52 52 50 49 50 49 44 45 45 35 26 35 39 29 30 32 34 31 28 23 18 19 20 21 22 23 22 23 24 22 21 25 23 15 14 15 12 9 10 14 10 9 14 15 8 6 5 13 16 15 13 10 9 8 12 14 12 17 34 35 34 35 39 46 50 51 52 51 51 50 53
50 50 50 50 50 50 51 51 50 50 51 51 51 52 51 51 52 50 51 51 48 48 48 49 45 42 22 27 25 26 29 30 32 33 31 30 23 19 18 16 18 19 23 19 22 20 19 20 17 18 20 22 18 13 10 9 15 13 14 16 11 9 13 10 9 17 18 12 13 15 12 13 13 14 15 22 33 33 35 37 43 47 50 51 50 49 50 51
50 50 50 50 50 50 51 50 50 50 51 50 53 52 52 53 51 49 46 46 46 46 41 37 41 26 17 20 26 29 30 32 32 30 29 28 23 21 23 23 19 17 19 18 18 16 16 22 25 18 18 15 13 12 8 10 9 11 12 11 13 12 6 6 16 22 21 16 9 12 11 14 15 15 15 28 36 37 36 42 46 48 47 50 49 48 49 51
50 50 50 50 51 50 50 50 50 50 50 50 51 52 52 51 48 46 46 43 35 30 29 28 28 27 25 25 27 30 33 32 27 26 29 28 25 25 22 19 20 15 18 21 20 25 28 19 16 14 14 21 25 27 28 23 19 20 17 17 10 7 11 15 16 21 27 19 13 19 19 16 17 18 21 24 36 39 39 40 45 44 46 46 47 50 50 52
50 51 50 51 50 51 50 50 51 50 51 49 50 51 34 34 32 29 30 28 30 32 32 32 31 30 28 30 29 31 28 27 27 24 27 29 26 20 17 17 17 21 17 21 24 34 31 19 18 20 23 26 29 31 31 28 28 21 19 17 11 11 11 15 21 26 22 29 14 20 17 16 20 22 22 27 32 34 38 40 42 42 41 43 46 48 50 52
51 51 51 51 50 50 50 50 51 50 50 51 47 36 35 38 39 39 36 26 29 33 34 33 36 32 31 30 31 32 31 25 23 22 25 28 23 18 15 13 13 13 23 22 22 20 19 14 21 26 31 34 35 35 32 30 27 24 18 15 14 13 11 22 25 27 26 25 15 17 15 15 21 22 25 25 29 32 37 40 42 42 40 39 40 45 49 51
51 51 51 51 50 50 51 51 50 50 50 49 48 37 37 41 44 43 41 32 33 34 33 33 31 29 29 33 33 33 29 20 20 23 22 24 20 17 14 10 15 17 20 24 18 20 18 10 25 28 32 34 35 36 33 33 30 22 21 23 15 16 15 17 27 28 30 26 23 21 18 17 22 24 26 27 26 33 42 43 45 44 41 40 39 40 45 49
51 51 51 51 50 51 50 51 50 51 50 45 37 36 40 42 44 42 40 35 31 31 34 34 33 29 27 27 33 31 25 23 23 20 23 19 16 16 15 12 14 14 10 14 18 13 9 25 29 31 31 32 32 34 33 24 19 26 27 18 13 21 18 14 24 26 32 34 32 21 21 16 17 19 21 29 30 34 33 33 34 38 42 44 46 46 46 46
51 51 51 51 52 50 51 50 49 49 47 43 36 39 41 45 47 44 41 37 37 32 38 34 35 32 31 36 34 32 27 28 26 27 25 21 17 17 14 14 14 11 9 12 14 12 10 34 32 27 28 27 32 27 26 25 15 22 27 26 23 23 23 22 26 23 21 25 28 23 11 12 21 18 17 24 25 22 23 27 25 29 32 36 39 43 45 48
51 51 51 51 51 51 51 50 45 42 40 36 36 40 44 45 47 50 42 35 25 21 29 25 33 26 34 31 32 32 28 21 18 28 23 20 22 16 17 13 15 14 15 13 11 17 19 33 31 28 29 28 27 22 26 26 16 18 20 24 22 20 25 25 25 22 15 10 27 29 14 9 18 18 20 24 22 22 27 27 25 26 27 25 29 32 37 43
51 52 51 51 51 51 50 41 40 40 38 35 40 46 46 46 55 50 40 26 19 24 25 24 23 26 30 28 30 29 25 18 19 24 23 22 18 18 16 12 15 14 17 25 19 13 20 28 26 30 29 23 22 18 28 24 16 13 35 25 22 23 26 26 25 21 15 23 28 25 17 12 12 15 22 22 22 20 24 26 26 22 27 26 28 28 34 37
51 51 51 51 52 49 51 49 41 33 32 40 43 45 47 53 54 49 41 18 22 23 20 20 20 22 22 22 26 23 20 18 15 16 18 18 19 17 17 12 11 12 18 20 15 22 33 26 26 26 24 18 13 16 29 29 20 23 33 26 24 23 28 26 21 22 24 22 15 18 20 15 13 17 22 21 18 19 22 26 25 24 25 27 30 29 30 35
51 51 51 52 51 51 51 50 43 33 39 43 45 47 47 56 49 43 29 19 27 20 20 19 19 19 14 18 20 20 19 20 17 14 15 17 16 13 17 16 14 14 16 22 15 26 22 20 20 19 14 13 18 18 23 30 23 34 31 28 27 28 27 27 21 17 22 20 15 16 23 15 10 17 20 19 16 18 24 24 23 26 28 28 31 35 35 33
50 50 51 51 50 51 51 52 44 40 45 44 48 50 53 51 44 34 23 15 26 17 15 16 14 10 9 11 15 15 18 18 16 15 15 16 16 15 14 16 14 17 16 15 12 12 21 29 27 16 13 13 20 30 30 27 31 30 28 22 22 22 22 22 20 17 20 14 14 18 23 17 9 14 17 21 31 26 25 24 24 27 28 26 33 30 30 28
50 50 50 51 48 44 44 41 35 41 45 50 51 50 51 45 37 22 19 25 20 13 14 12 7 8 10 14 13 13 14 14 13 16 14 14 16 13 13 14 15 19 18 20 19 15 13 21 20 15 24 18 18 21 27 26 25 25 26 20 17 21 20 19 19 19 13 11 20 20 21 23 10 10 19 25 25 26 27 26 27 30 28 29 33 28 29 31
49 49 50 52 48 50 47 39 44 45 48 53 54 48 44 29 29 20 21 20 20 13 13 11 7 9 11 10 11 10 12 11 13 12 11 11 17 15 14 14 20 13 14 14 13 16 16 13 13 15 22 16 16 10 20 23 27 23 21 18 15 12 14 12 13 13 9 12 21 18 21 20 14 15 25 23 23 25 32 26 30 29 27 32 29 32 31 33
49 51 50 51 51 52 47 47 48 51 54 54 48 41 31 18 19 22 21 17 19 16 14 12 8 9 9 9 9 11 12 13 14 13 14 11 11 15 13 13 15 20 13 22 16 14 10 12 13 15 19 20 17 11 14 14 19 20 16 18 15 9 8 11 5 8 9 12 20 20 24 15 12 16 25 26 29 27 30 32 28 28 31 33 29 31 31 35
49 51 54 53 50 47 45 53 53 54 55 52 43 27 21 13 16 31 29 17 15 13 13 10 9 11 10 10 10 11 8 11 12 14 13 15 10 20 15 14 15 19 21 20 10 10 8 13 15 16 18 19 15 11 14 19 16 14 14 12 18 14 12 10 5 6 8 7 23 23 19 16 15 22 25 29 28 26 24 20 27 30 29 33 30 31 32 36
48 53 57 56 55 51 50 50 57 58 56 41 32 21 14 7 16 21 23 16 15 13 11 11 8 10 11 10 11 8 11 14 10 13 14 12 17 21 23 19 21 12 19 13 25 20 5 7 18 15 16 16 13 16 16 11 11 16 18 13 14 15 15 9 17 14 14 10 15 20 18 18 19 27 28 28 23 22 22 22 26 27 28 31 31 33 35 38
49 56 56 50 38 40 43 52 57 56 50 34 25 10 8 12 16 17 19 16 14 13 12 13 12 10 12 10 10 8 12 14 6 11 15 15 18 19 17 19 21 20 20 13 20 11 10 8 18 16 18 15 15 17 15 13 14 19 11 15 12 17 14 14 23 31 22 14 11 13 19 18 23 21 25 24 21 20 20 19 21 25 26 31 31 32 35 38
46 52 50 40 33 35 42 53 50 51 44 30 20 9 19 25 18 21 20 14 14 13 13 13 18 13 15 14 13 7 9 10 6 5 13 13 19 17 18 19 18 20 20 23 22 17 18 13 15 14 15 16 19 15 15 15 13 13 13 13 16 16 22 20 11 16 13 10 12 15 17 13 11 13 22 22 21 19 18 17 19 28 27 27 29 32 35 37
50 48 47 34 32 36 42 51 53 48 39 28 18 30 25 21 18 16 13 14 14 14 14 16 20 12 14 14 12 8 14 9 12 8 9 4 17 18 18 18 17 18 19 22 20 26 18 11 9 14 15 18 18 17 15 15 15 12 13 14 12 12 12 15 16 12 11 11 8 13 13 14 8 16 19 21 22 22 20 19 21 22 25 27 29 31 34 39
50 43 35 34 32 37 45 56 51 39 34 24 21 22 24 23 16 13 13 14 16 14 13 13 15 15 13 13 12 11 12 14 12 12 10 12 11 23 18 19 17 17 19 18 22 26 27 17 11 18 15 17 17 15 12 16 16 17 16 13 14 18 17 13 16 16 13 11 14 16 10 13 14 16 18 20 23 24 21 21 21 22 25 28 31 34 34 39
37 27 25 38 38 40 51 55 41 34 26 17 16 22 29 27 20 16 14 15 14 16 18 17 14 17 14 15 12 14 13 12 11 12 8 17 9 18 19 19 19 18 17 20 17 23 22 28 14 14 19 19 13 16 14 11 16 17 16 14 17 23 25 19 22 15 14 13 11 11 11 12 18 25 22 21 24 25 24 23 24 25 26 29 32 37 38 39
42 25 25 39 40 43 51 43 31 27 25 30 26 28 23 19 19 16 14 15 13 16 17 18 18 17 20 18 15 13 14 13 12 10 8 8 6 15 24 23 23 17 17 14 15 25 19 21 16 14 13 14 13 19 19 19 19 19 19 18 14 19 19 14 14 15 17 14 13 10 12 14 30 33 28 23 26 24 21 22 24 22 27 33 36 39 40 39
27 13 26 37 45 44 39 28 28 34 28 24 25 28 26 28 19 16 15 15 14 14 15 19 18 18 19 17 16 15 15 13 11 10 9 7 10 6 23 25 26 25 18 15 18 35 29 22 18 13 11 9 15 18 20 19 20 19 20 17 14 23 19 17 11 13 14 14 13 15 12 12 33 31 32 27 26 22 23 22 23 24 30 33 35 36 39 40
22 19 34 35 43 38 28 22 30 27 26 27 23 22 22 21 19 16 17 16 16 14 18 18 21 21 20 18 17 15 14 16 12 10 10 9 15 21 24 28 29 25 20 19 17 28 32 22 15 8 5 3 13 16 20 19 18 18 20 22 21 20 22 19 16 18 17 17 15 13 14 17 32 33 34 28 26 23 25 25 24 26 31 33 35 37 38 40
25 30 27 29 42 39 23 17 16 18 24 26 28 24 22 22 19 17 17 19 18 19 21 22 17 14 23 16 19 15 14 18 14 11 14 15 18 23 24 27 28 23 18 25 20 33 16 22 18 8 7 11 14 15 13 17 19 18 17 21 22 19 21 25 25 27 18 17 15 12 10 11 33 31 28 27 26 24 22 26 27 28 33 33 34 37 38 40
29 36 33 29 36 37 21 29 23 19 28 30 28 24 24 21 22 24 23 20 18 19 21 19 20 18 16 16 16 15 15 11 19 16 20 18 20 22 23 25 25 26 27 30 38 25 17 19 19 11 7 7 8 7 9 11 14 13 22 22 21 16 23 23 16 16 15 20 16 13 12 17 27 27 25 24 22 22 22 21 25 26 29 29 33 36 38 38
23 19 29 26 29 32 33 36 32 27 26 28 27 29 23 23 22 21 21 20 19 22 22 21 18 19 16 17 19 16 14 18 14 19 13 17 20 19 22 22 24 27 35 34 33 25 23 26 23 19 15 9 12 7 23 17 16 14 16 19 21 20 21 25 20 16 13 16 15 19 19 17 25 23 23 24 24 23 23 23 22 23 29 33 37 36 36 37
31 27 28 23 30 29 28 27 26 26 25 32 22 30 29 26 24 19 21 24 20 22 23 23 22 22 25 19 24 22 19 18 16 19 19 17 19 20 21 21 20 26 36 29 29 24 24 19 22 24 21 14 13 12 15 17 15 14 14 17 15 20 24 24 17 14 18 17 12 17 19 18 18 20 21 23 23 23 23 24 24 25 31 34 36 37 38 33
28 32 35 36 31 25 25 27 26 27 25 26 30 32 27 24 23 26 20 19 19 24 25 23 19 19 21 24 27 24 25 21 23 23 25 24 20 20 18 19 18 23 26 21 25 26 24 19 23 25 22 16 16 15 15 15 14 15 14 18 20 20 23 23 24 22 22 17 14 19 22 22 19 16 19 21 23 25 24 25 27 32 31 33 35 33 32 33
32 32 31 38 32 31 30 30 33 23 26 27 29 29 29 26 26 22 24 26 20 25 19 25 26 18 19 19 22 22 26 22 24 30 28 26 25 25 22 20 18 18 19 25 22 28 25 18 22 18 19 17 14 15 16 15 15 15 19 19 19 22 23 24 25 23 22 22 23 22 23 25 21 19 18 25 26 27 26 29 32 31 32 33 32 32 31 31
30 32 31 34 33 30 32 32 32 28 27 31 26 32 24 28 28 23 20 24 27 26 21 25 20 19 21 19 22 24 33 33 32 25 32 29 28 26 24 25 20 21 18 23 22 30 21 17 28 22 20 18 16 15 13 15 18 18 17 16 17 18 19 22 24 25 26 25 27 27 27 26 22 21 19 32 31 24 27 27 29 30 29 32 31 31 31 29
36 37 39 34 26 28 31 29 27 25 23 28 27 30 29 25 27 23 21 20 26 29 27 29 24 25 21 21 27 26 25 28 29 29 29 29 25 25 25 27 18 24 19 22 26 29 25 18 23 21 17 18 15 15 14 15 16 16 18 20 20 20 22 23 22 25 26 25 25 25 23 22 21 21 21 22 27 26 24 25 29 31 31 32 31 31 30 29
37 39 40 37 26 31 27 28 28 26 23 29 30 28 28 25 22 22 26 20 19 20 24 26 29 26 25 27 27 25 24 24 25 24 22 21 22 20 19 19 17 20 23 22 25 20 22 22 17 16 14 15 13 13 13 17 18 15 17 21 21 21 21 22 21 25 26 27 24 21 20 20 26 27 23 23 22 22 24 23 30 33 31 30 31 30 28 28